[[{"header":{"parameterUnit":"m.s-1","parameterCategory":1,"la1":30.2991,"la2":30.254,"lo1":-89.0895,"lo2":-89.0444,"dy":0.0017,"dx":0.0017,"nx":28,"ny":28,"refTime":"2024-06-28T03:00:00:Z","depth":0,"parameterNumber":2,"parameterNumberName":"U-component_of_WINDS"},"data":[0,0,0,0,0,0,0,0,0,0,0,0,0,0,0,0,0,0,0,0,0,0,0,0,0,0,0,0,0,0,0,0,0,0,0,0,0,0,0,0,0,0,0,0,0,0,0,0,0,0,0,0,0,0,0,0,0,0,1.3866,1.3866,0,1.3936,1.3937,1.3938,1.3923,1.3922,1.3921,1.3919,1.3989,1.3992,1.3995,0,0,0,0,0,0,0,0,0,0,0,0,0,1.3715,1.3718,1.3866,1.3867,1.3867,1.3936,1.3937,1.3938,1.3923,1.3922,1.392,1.3919,1.3988,1.3992,1.3996,0,0,0,0,0,0,0,0,0,0,0,0,0,1.3783,1.3719,1.3865,1.3869,1.387,1.3936,1.3937,1.3938,1.3924,1.3922,1.392,1.3918,1.3987,1.3992,1.3996,1.4063,0,0,1.401,1.4012,0,0,0,0,0,0,0,0,1.3779,1.3788,1.3867,1.3868,1.387,1.3919,1.3909,1.398,1.3924,1.3903,1.3919,1.3917,1.3967,1.3974,1.3991,1.4066,1.4069,1.4011,1.4013,1.4015,1.4017,0,0,0,0,0,0,0,1.3774,1.3785,1.3893,1.3868,1.387,1.3865,1.3873,1.3923,1.3945,1.3905,1.3904,1.3913,1.3968,1.3986,1.3992,1.407,1.4011,1.4015,1.4017,1.4019,1.4202,1.4204,0,0,0,0,0,0,1.3769,1.3781,1.3891,1.3895,1.3819,1.3869,1.3878,1.3905,1.3945,1.3949,1.3914,1.3912,1.398,1.3987,1.3995,1.4074,1.4015,1.402,1.4022,1.4199,1.4202,1.4204,0,0,0,0,0,0,1.3766,1.3779,1.3888,1.3838,1.3852,1.3874,1.3905,1.3907,1.3926,1.3952,1.3955,1.3929,1.3978,1.3988,1.4046,1.4076,1.4022,1.4026,1.4197,1.42,1.4203,1.4234,0,0,0,0,0,0,1.3761,1.3778,1.3804,1.3839,1.3855,1.3939,1.3907,1.391,1.3934,1.3932,1.3967,1.3971,1.3978,1.4039,1.405,1.4082,1.403,1.4194,1.4198,1.4202,1.4231,1.4238,1.4245,0,0,0,0,0,1.3756,1.3811,1.3806,1.3819,1.3888,1.3941,1.395,1.3957,1.3937,1.3963,1.3979,1.397,1.4071,1.4045,1.4058,1.4091,1.4192,1.4197,1.4202,1.4228,1.4237,1.4245,0,0,0,0,0,0,1.3779,1.3815,1.381,1.3878,1.3907,1.3939,1.3972,1.3967,1.4002,1.3998,1.4004,1.4012,1.407,1.4086,1.4057,1.4156,1.4129,1.4136,1.4144,1.4153,1.416,1.4155,1.4033,0,0,0,0,0,1.3792,1.3833,1.3862,1.3918,1.3933,1.395,1.3973,1.3976,1.4006,1.4018,1.4038,1.4067,1.4104,1.413,1.4166,1.4233,1.4239,1.4262,1.4269,1.4274,1.428,1.4315,1.4325,1.422,1.422,1.422,0,0,1.3819,1.3843,1.3869,1.3923,1.3946,1.3987,1.396,1.4005,1.4035,1.4024,1.408,1.4095,1.4127,1.4189,1.4217,1.4204,1.4311,1.428,1.4284,1.4288,1.4321,1.4331,1.4339,1.4223,1.4222,1.4222,0,0,1.3888,1.3912,1.3961,1.3984,1.4018,1.4029,1.4041,1.4074,1.4083,1.4139,1.4132,1.4166,1.4232,1.4255,1.4275,1.4351,1.4343,1.4363,1.4399,1.4433,1.4441,1.4448,1.4474,1.4483,1.4369,1.4369,1.4369,0,1.3917,1.398,1.3986,1.4032,1.4055,1.4047,1.4096,1.4117,1.4162,1.4177,1.4162,1.4243,1.4265,1.4331,1.4349,1.4366,1.4378,1.4359,1.4439,1.4447,1.4454,1.4478,1.4488,1.4371,1.4371,1.4371,1.437,0,1.4013,1.4056,1.4091,1.4134,1.4161,1.4208,1.422,1.4247,1.4247,1.4259,1.4314,1.4339,1.4379,1.4395,1.4396,1.4461,1.4451,1.4438,1.441,1.4466,1.4489,1.4498,1.4374,1.4373,1.4373,1.4372,0,0,1.41,1.4145,1.4158,1.4177,1.4213,1.4246,1.4291,1.4331,1.4353,1.4383,1.442,1.4475,1.4462,1.4485,1.4488,1.4517,1.4574,1.4499,1.45,1.4512,1.4645,1.4655,1.4666,1.4569,1.457,1.4572,1.4642,0,1.4172,1.4254,1.426,1.4332,1.4371,1.4363,1.4402,1.4428,1.444,1.4473,1.4486,1.4524,1.4505,1.4518,1.4547,1.4561,1.4601,1.4556,1.4602,1.4604,1.4594,1.4678,1.4689,1.4754,1.4651,1.4653,1.4654,0,1.4268,1.4301,1.4378,1.4407,1.4424,1.4459,1.4495,1.4528,1.4556,1.4562,1.4587,1.4585,1.4629,1.46,1.466,1.463,1.4649,1.4658,1.4661,1.4665,1.4632,1.4684,1.4775,1.4785,1.4669,1.4667,1.4666,0,1.4323,1.4387,1.444,1.4456,1.4492,1.4517,1.4533,1.4559,1.4582,1.4613,1.4628,1.4664,1.4683,1.471,1.4717,1.4695,1.4777,1.4748,1.4782,1.4782,1.48,1.4799,1.4895,1.4813,1.4813,1.4813,1.4812,0,1.4403,1.445,1.4465,1.4498,1.4549,1.4555,1.4605,1.4619,1.4642,1.4677,1.4672,1.4704,1.4711,1.4744,1.475,1.4798,1.4807,1.4812,1.4813,1.4813,1.4812,1.4825,1.482,1.4815,1.4815,1.4814,1.4814,0,1.4473,1.4485,1.4543,1.4572,1.458,1.4616,1.464,1.4671,1.4681,1.4725,1.4735,1.4751,1.4789,1.4799,1.4845,1.4848,1.4905,1.4902,1.4896,1.4895,1.4928,1.4925,1.5036,1.505,1.4959,1.496,1.4961,0,1.4523,1.4559,1.4591,1.4614,1.4631,1.4668,1.4691,1.4698,1.4722,1.4756,1.4782,1.4819,1.485,1.4911,1.4926,1.496,1.4957,1.4994,1.4963,1.496,1.4957,1.4954,1.4957,1.5,1.5001,1.5002,1.5002,0,1.461,1.4614,1.4649,1.4684,1.4712,1.4741,1.4768,1.4786,1.4796,1.4823,1.4863,1.4886,1.4932,1.4969,1.5003,1.5018,1.5011,1.5012,1.5021,1.5021,1.5016,1.5018,1.4911,1.501,1.5009,1.5008,1.5008,1.5008,1.4671,1.4702,1.4729,1.4767,1.4788,1.4813,1.4843,1.4857,1.489,1.4928,1.493,1.4972,1.4997,1.5042,1.5059,1.5091,1.5079,1.5093,1.5097,1.51,1.5102,1.5011,1.5097,1.5097,1.5097,1.5096,1.5096,0,1.4757,1.4774,1.4809,1.4847,1.4876,1.4868,1.4897,1.4921,1.4959,1.4983,1.5013,1.5057,1.5092,1.5109,1.5144,1.5166,1.5163,1.5174,1.5173,1.5176,1.5111,1.5099,1.5176,1.5176,1.5176,1.5176,1.5176,1.5176,1.4806,1.4857,1.4864,1.4924,1.494,1.4982,1.4999,1.5022,1.5041,1.509,1.512,1.5131,1.5152,1.5187,1.5218,1.5222,1.5235,1.5247,1.5249,1.5189,1.5181,1.5173,1.5162,1.525,1.525,1.5311,1.5312,1.5312]},{"header":{"parameterUnit":"m.s-1","parameterCategory":1,"la1":30.2991,"la2":30.254,"lo1":-89.0895,"lo2":-89.0444,"dy":0.0017,"dx":0.0017,"nx":28,"ny":28,"refTime":"2024-06-28T03:00:00:Z","depth":0,"parameterNumber":3,"parameterNumberName":"V-component_of_WINDS"},"data":[0,0,0,0,0,0,0,0,0,0,0,0,0,0,0,0,0,0,0,0,0,0,0,0,0,0,0,0,0,0,0,0,0,0,0,0,0,0,0,0,0,0,0,0,0,0,0,0,0,0,0,0,0,0,0,0,0,0,6.5616,6.5617,0,6.5703,6.5704,6.5705,6.5664,6.5662,6.566,6.5658,6.574,6.5744,6.5749,0,0,0,0,0,0,0,0,0,0,0,0,0,6.5407,6.5411,6.5616,6.5617,6.5618,6.5703,6.5704,6.5705,6.5665,6.5662,6.5659,6.5657,6.5739,6.5744,6.5749,0,0,0,0,0,0,0,0,0,0,0,0,0,6.5496,6.5412,6.5616,6.5608,6.5609,6.5702,6.5704,6.5705,6.5665,6.5662,6.5659,6.5656,6.5737,6.5743,6.575,6.5854,0,0,6.5769,6.5772,0,0,0,0,0,0,0,0,6.5491,6.5504,6.5608,6.5609,6.5609,6.567,6.566,6.5755,6.5666,6.5644,6.5658,6.5654,6.5719,6.5727,6.575,6.5858,6.5861,6.577,6.5773,6.5776,6.5778,0,0,0,0,0,0,0,6.5485,6.55,6.565,6.561,6.5611,6.5598,6.5607,6.5678,6.5698,6.5645,6.5643,6.5654,6.5719,6.5744,6.5751,6.5862,6.5769,6.5775,6.5779,6.5781,6.6057,6.6061,0,0,0,0,0,0,6.548,6.5495,6.5647,6.5653,6.5541,6.5604,6.5615,6.5653,6.5697,6.5701,6.5656,6.5652,6.5735,6.5744,6.5754,6.5877,6.5776,6.5782,6.5786,6.6054,6.6058,6.6062,0,0,0,0,0,0,6.5476,6.5494,6.5644,6.5573,6.5591,6.5612,6.5655,6.5657,6.5682,6.5706,6.5709,6.5679,6.5732,6.5745,6.5829,6.588,6.5785,6.5791,6.605,6.6055,6.606,6.6126,0,0,0,0,0,0,6.547,6.5493,6.5534,6.5574,6.5595,6.572,6.5659,6.5661,6.5694,6.5688,6.5728,6.5731,6.5731,6.582,6.5836,6.5887,6.5796,6.6045,6.6052,6.6058,6.6119,6.6133,6.6144,0,0,0,0,0,6.5462,6.5549,6.5537,6.5555,6.5648,6.5723,6.5735,6.5734,6.5698,6.5739,6.5754,6.573,6.5872,6.5829,6.5846,6.59,6.6042,6.605,6.6058,6.6114,6.613,6.6144,0,0,0,0,0,0,6.5512,6.5554,6.5541,6.5643,6.568,6.5716,6.5768,6.5752,6.5798,6.5791,6.5787,6.5796,6.5882,6.5899,6.5851,6.6002,6.5951,6.5963,6.5988,6.6004,6.6016,6.6009,6.5801,0,0,0,0,0,6.5535,6.5595,6.5627,6.5714,6.5733,6.5748,6.578,6.5777,6.5814,6.5828,6.585,6.5884,6.5936,6.5971,6.6021,6.6122,6.6128,6.6167,6.6179,6.619,6.6199,6.6252,6.6269,6.6088,6.6088,6.6088,0,0,6.5583,6.5613,6.5651,6.5725,6.5753,6.5812,6.5761,6.5826,6.5869,6.5838,6.5919,6.5935,6.5973,6.6066,6.6108,6.6083,6.6251,6.62,6.6208,6.6212,6.6262,6.6279,6.6294,6.6093,6.6092,6.6091,0,0,6.57,6.573,6.5805,6.5835,6.5878,6.5887,6.5905,6.5943,6.5954,6.6035,6.6012,6.6062,6.6153,6.6181,6.6206,6.6333,6.6311,6.6349,6.6414,6.6465,6.6479,6.6492,6.6535,6.6551,6.6359,6.6359,6.6359,0,6.5753,6.5845,6.5845,6.5912,6.5944,6.592,6.5994,6.6022,6.6079,6.61,6.6072,6.6184,6.6208,6.6306,6.6337,6.6359,6.6377,6.6344,6.6478,6.649,6.6502,6.6543,6.656,6.6363,6.6362,6.6362,6.6362,0,6.5907,6.597,6.6025,6.6082,6.612,6.6191,6.6199,6.6237,6.623,6.624,6.6322,6.635,6.6404,6.6427,6.642,6.6523,6.6506,6.6478,6.6427,6.6523,6.6562,6.6578,6.6369,6.6367,6.6366,6.6365,0,0,6.6058,6.6115,6.6135,6.616,6.6206,6.6253,6.6321,6.6376,6.6407,6.6447,6.6502,6.6578,6.6552,6.6582,6.6577,6.6623,6.6718,6.6588,6.6589,6.661,6.6831,6.6851,6.687,6.6705,6.6708,6.671,6.6827,0,6.6178,6.6299,6.6301,6.6411,6.6468,6.6445,6.6504,6.6537,6.6548,6.6596,6.6607,6.6661,6.6624,6.6641,6.6685,6.6698,6.6762,6.6689,6.6753,6.6756,6.6744,6.689,6.6912,6.7021,6.6842,6.6845,6.6847,0,6.6334,6.638,6.6497,6.6533,6.6557,6.661,6.6659,6.6706,6.6742,6.6746,6.6779,6.6768,6.6833,6.6781,6.687,6.682,6.6846,6.6856,6.6861,6.6866,6.6807,6.6898,6.7056,6.7072,6.6871,6.6869,6.6867,0,6.6431,6.6522,6.6603,6.6625,6.667,6.6708,6.6728,6.676,6.6793,6.6835,6.6855,6.6903,6.693,6.6966,6.6967,6.6929,6.7056,6.7004,6.706,6.706,6.7087,6.7085,6.7251,6.7106,6.7106,6.7105,6.7105,0,6.6564,6.6635,6.6647,6.6697,6.6776,6.6776,6.6853,6.6869,6.6898,6.6948,6.6931,6.6978,6.6977,6.7024,6.7024,6.7097,6.7109,6.7113,6.7112,6.7114,6.7113,6.713,6.7122,6.711,6.7109,6.7108,6.7107,0,6.6685,6.6696,6.6783,6.6819,6.6829,6.6885,6.6914,6.696,6.6969,6.7033,6.7048,6.7062,6.7116,6.7121,6.7184,6.7184,6.7271,6.7263,6.726,6.7258,6.7313,6.7307,6.7494,6.7518,6.7359,6.7361,6.7362,0,6.6769,6.6824,6.6865,6.6899,6.6921,6.6976,6.7009,6.7009,6.7044,6.7088,6.7128,6.7181,6.7223,6.731,6.7324,6.7372,6.7363,6.7425,6.737,6.7369,6.7362,6.7358,6.7363,6.7436,6.7437,6.7439,6.744,0,6.6915,6.6918,6.6968,6.7019,6.7059,6.7099,6.7136,6.7164,6.7168,6.7208,6.7264,6.7297,6.7361,6.7413,6.7459,6.7476,6.7458,6.7457,6.7473,6.7475,6.747,6.7472,6.7288,6.7453,6.7452,6.7451,6.745,6.7449,6.702,6.7067,6.7103,6.7158,6.7187,6.7221,6.7266,6.7281,6.7329,6.7383,6.7379,6.7441,6.7472,6.7533,6.7554,6.76,6.7578,6.7601,6.7606,6.7611,6.7616,6.7464,6.7608,6.7608,6.7607,6.7607,6.7607,0,6.7164,6.7186,6.7237,6.729,6.7333,6.7315,6.7354,6.739,6.7445,6.7478,6.752,6.7583,6.7633,6.7651,6.7699,6.7732,6.7725,6.7745,6.7741,6.7745,6.7634,6.7615,6.775,6.7749,6.7749,6.7749,6.7749,6.7749,6.7244,6.7323,6.7329,6.742,6.7441,6.7503,6.7527,6.7558,6.7583,6.7656,6.7698,6.771,6.7735,6.7785,6.7828,6.7832,6.785,6.7873,6.7873,6.7768,6.7753,6.774,6.7722,6.7877,6.7877,6.798,6.7981,6.7982]}]]